Regional Weather Roundup
Issued by NWS Raleigh/Durham, NC

Home | Current Version | Previous Version | Text Only | Print | Product List | Glossary On
Versions: 1 2 3 4 5 6 7 8 9 10 11 12 13 14 15 16 17 18 19 20 21 22 23 24 25 26 27 28 29 30 31 32 33 34 35 36 37 38 39 40 41 42 43 44 45 46 47 48 49 50
000
ASUS42 KRAH 170510
RWRRAH
NORTH CAROLINA WEATHER ROUNDUP
NATIONAL WEATHER SERVICE RALEIGH NC
100 AM EDT WED SEP 17 2014

NOTE: "FAIR" INDICATES FEW OR NO CLOUDS BELOW 12,000 FEET WITH NO
SIGNIFICANT WEATHER AND/OR OBSTRUCTIONS TO VISIBILITY.

NCZ001-053-055-056-065-067-170600-
WESTERN NORTH CAROLINA

CITY           SKY/WX    TMP DP  RH WIND       PRES   REMARKS
ASHEVILLE      MOCLDY    65  61  87 N7        30.05F
JEFFERSON      FOG       56  55  95 CALM      30.10R VSB 1
MORGANTON      PTCLDY    65  64  99 CALM      30.06S
HICKORY        MOCLDY    68  66  93 NE3       30.01S
RUTHERFORDTON  MOCLDY    66  64  93 NE5       30.01S
MOUNT AIRY     PTCLDY    63  60  88 NW3       30.04F
BOONE          CLEAR     56  56 100 CALM      30.09F FOG
$$

NCZ021-022-025-041-071-084-088-170600-
CENTRAL NORTH CAROLINA

CITY           SKY/WX    TMP DP  RH WIND       PRES   REMARKS
CHARLOTTE      CLOUDY    67  64  90 E6        30.00R
GREENSBORO     PTCLDY    68  66  93 CALM      29.99F
WINSTON-SALEM  PTCLDY    67  64  90 N7        30.02S
RALEIGH-DURHAM CLOUDY    70  66  87 N3        29.98S
FORT BRAGG     LGT RAIN  66  66 100 NW8       29.98R
FAYETTEVILLE   LGT RAIN  67  66  97 SE10      29.93F
BURLINGTON     MOCLDY    68  65  90 CALM      29.98F
LAURINBURG     TSTM      66  64  93 CALM      29.99S FOG
$$

NCZ011-015-027-028-043-044-047-080-103-170600-
NORTHEASTERN NORTH CAROLINA

CITY           SKY/WX    TMP DP  RH WIND       PRES   REMARKS
ROCKY MT-WILSO CLOUDY    70  68  93 CALM      29.96F
GREENVILLE     CLOUDY    70  68  94 E6        29.98F
WASHINGTON     MOCLDY    69  66  90 E5        29.97F
ELIZABETH CITY CLOUDY    70  64  81 CALM      29.99S
MANTEO         MOCLDY    71  64  77 NE5       29.98S
CAPE HATTERAS  MOCLDY    69  68  96 E6        29.96F
$$

NCZ078-087-090-091-093-098-101-170600-
SOUTHEASTERN NORTH CAROLINA

CITY           SKY/WX    TMP DP  RH WIND       PRES   REMARKS
LUMBERTON      TSTM      66  64  93 SW8       29.98S FOG
GOLDSBORO      LGT RAIN  71  71  98 CALM      29.94F
KINSTON        LGT RAIN  72  70  94 CALM      29.96F
KENANSVILLE    RAIN      69  67  94 CALM      29.96F
NEW BERN       MOCLDY    72  68  87 CALM      29.96F
CHERRY POINT   PTCLDY    73  70  90 CALM      29.96F
BEAUFORT       LGT RAIN  75  71  87 VRB5      29.95F FOG
JACKSONVILLE   CLOUDY    73  70  90 CALM      29.94F
WILMINGTON     PTCLDY    72  70  93 N3        29.96S
$$




USA.gov is the U.S. government's official web portal to all federal, state and local government web resources and services.